Zurück zum Katalog

SL-8 R/B

AktivPO
NORAD 20528·ROCKET BODY·🇷🇺 Russia

Gestartet Mar 20, 1990 von Plesetsk Cosmodrome

Loading…

Nächste Überflüge (nächste 24 Stunden)

TLE

AktuellSource: Space-Track

Epoche: Sep 14, 2026, 07:32 UTC

1 20528U 90023B   26257.31435228 -.00000049  00000-0 -68521-4 0  9992
2 20528  82.9316  88.7324 0031931   4.1648 169.1717 13.73158074828021

Verfolge SL-8 R/B in Echtzeit mit AllMySat

Download on the App Store